STARLINK AX

Last updated on Sat Jul 15 2023 00:02:05 GMT+0000 (Coordinated Universal Time)

1 57263U 23094AX 23195.75001157 -.00980084 28941-3 -28812-2 0 9998 2 57263 42.9951 276.0515 0021951 198.3839 241.9777 15.91324048 1308

Satellite not in orbit

STARLINK AX